Home   Weather   Irving   Past weeks
Flag for USA

Past Weather in Irving, Texas, USA — Yesterday and Last 2 Weeks

Now
36 °F

Partly sunny.


Feels Like: 36 °F
Forecast: 49 / 26 °F
Wind: No wind

Location: Dallas / Fort Worth International Airport

Current Time: Jan 20, 2019 at 11:57:33 am

Latest Report: Jan 20, 2019 at 10:53 am


Visibility: 10 mi

Pressure: 30.41 "Hg

Humidity: 52%

Dew Point: 20 °F

Location of IrvingLocation

Past Weather in Irving — Graph

°F

Irving Temperature Yesterday

Maximum temperature yesterday: 55 °F (at 12:53 am)
Minimum temperature yesterday: 30 °F (at 11:53 pm)
Average temperature yesterday: 37 °F

High & Low Weather Summary for the Past Weeks

 TemperatureHumidityPressure
High73 °F (Jan 7, 12:53 pm)97% (Jan 11, 4:53 pm)30.58 "Hg (Jan 11, 4:53 pm)
Low25 °F (Jan 20, 6:53 am)20% (Jan 9, 1:53 pm)29.61 "Hg (Jan 18, 4:53 pm)
Average49 °F68%30.15 "Hg
* Reported Jan 5 9:53 am — Jan 20 9:53 am, Irving. Weather by CustomWeather, © 2019

Note: Actual official high and low records may vary slightly from our data, if they occured in-between our weather recording intervals... More about our weather records

Advertising

Irving Weather History for the Previous 24 Hours

Scroll right to see more
 ConditionsComfort  
Time TempWeatherWind HumidityBarometerVisibility
9:53 am
Sun, Jan 20
32 °FPartly sunny.3 mph61%30.40 "Hg10 mi
8:53 am29 °FPartly sunny.5 mph72%30.39 "Hg10 mi
7:53 am26 °FPartly sunny.9 mph77%30.38 "Hg10 mi
6:53 am25 °FPassing clouds.7 mph81%30.37 "Hg10 mi
5:53 am26 °FPassing clouds.8 mph77%30.36 "Hg10 mi
4:53 am26 °FPassing clouds.5 mph74%30.35 "Hg10 mi
3:53 am26 °FPassing clouds.6 mph74%30.36 "Hg10 mi
2:53 am28 °FPassing clouds.10 mph69%30.37 "Hg10 mi
1:53 am28 °FPassing clouds.10 mph72%30.36 "Hg10 mi
12:53 am29 °FPassing clouds.15 mph69%30.37 "Hg10 mi
11:53 pm
Sat, Jan 19
30 °FClear.15 mph66%30.37 "Hg10 mi
10:53 pm31 °FClear.16 mph64%30.34 "Hg10 mi
9:53 pm32 °FClear.21 mph59%30.31 "Hg10 mi
8:53 pm33 °FClear.15 mph61%30.33 "Hg10 mi
7:53 pm34 °FClear.16 mph61%30.31 "Hg10 mi
6:53 pm35 °FPassing clouds.17 mph61%30.28 "Hg10 mi
4:53 pm38 °FPassing clouds.20 mph53%30.22 "Hg10 mi
3:53 pm39 °FScattered clouds.28 mph53%30.19 "Hg10 mi
2:53 pm38 °FPartly sunny.31 mph58%30.15 "Hg10 mi
1:53 pm38 °FPartly sunny.31 mph55%30.14 "Hg10 mi
12:53 pm38 °FScattered clouds.30 mph58%30.14 "Hg10 mi
11:53 am37 °FBroken clouds.36 mph57%30.14 "Hg10 mi
Weather by CustomWeather, © 2019

See weather overview

LIVE TOTAL LUNAR ECLIPSE – Watch the eclipse as it happens